Time,TemperatureF,DewpointF,PressureIn,WindDirection,WindDirectionDegrees,WindSpeedMPH,WindSpeedGustMPH,Humidity,HourlyPrecipIn,Conditions,Clouds,dailyrainin,SoftwareType,DateUTC
2013-07-27 00:02:00,72.0,60.0,29.88,SW,231,0.0,7.0,66,0.00,,,0.00,,2013-07-27 04:02:00,
2013-07-27 00:12:00,72.0,60.0,29.89,WSW,239,0.0,3.0,67,0.00,,,0.00,,2013-07-27 04:12:00,
2013-07-27 00:32:00,72.0,60.0,29.89,WSW,244,2.0,4.0,67,0.00,,,0.00,,2013-07-27 04:32:00,
2013-07-27 00:43:00,72.0,61.0,29.88,SW,231,2.0,5.0,68,0.00,,,0.00,,2013-07-27 04:43:00,
2013-07-27 00:53:00,72.0,61.0,29.88,WSW,249,2.0,5.0,69,0.00,,,0.00,,2013-07-27 04:53:00,
2013-07-27 01:02:00,72.0,61.0,29.88,WSW,249,2.0,5.0,69,0.00,,,0.00,,2013-07-27 05:02:00,
2013-07-27 01:12:00,71.0,63.0,29.88,West,275,2.0,10.0,75,0.00,,,0.00,,2013-07-27 05:12:00,
2013-07-27 01:32:00,70.0,62.0,29.88,SW,233,2.0,4.0,77,0.00,,,0.00,,2013-07-27 05:32:00,
2013-07-27 01:43:00,68.0,63.0,29.88,SW,230,0.0,2.0,83,0.00,,,0.00,,2013-07-27 05:43:00,
2013-07-27 01:52:00,68.0,63.0,29.88,SW,231,0.0,1.0,85,0.00,,,0.00,,2013-07-27 05:52:00,
2013-07-27 02:12:00,67.0,63.0,29.87,SW,224,1.0,3.0,86,0.00,,,0.00,,2013-07-27 06:12:00,
2013-07-27 02:33:00,67.0,63.0,29.86,South,171,0.0,2.0,86,0.00,,,0.00,,2013-07-27 06:33:00,
2013-07-27 02:43:00,67.0,63.0,29.85,WSW,244,1.0,5.0,86,0.00,,,0.00,,2013-07-27 06:43:00,
2013-07-27 02:52:00,67.0,63.0,29.85,WSW,245,1.0,3.0,87,0.00,,,0.00,,2013-07-27 06:52:00,
2013-07-27 03:02:00,67.0,63.0,29.85,WSW,245,1.0,3.0,87,0.00,,,0.00,,2013-07-27 07:02:00,
2013-07-27 03:12:00,67.0,63.0,29.85,WSW,243,1.0,4.0,88,0.00,,,0.00,,2013-07-27 07:12:00,
2013-07-27 03:22:00,67.0,63.0,29.84,West,273,1.0,4.0,88,0.00,,,0.00,,2013-07-27 07:22:00,
2013-07-27 03:33:00,67.0,63.0,29.84,West,273,1.0,4.0,88,0.00,,,0.00,,2013-07-27 07:33:00,
2013-07-27 03:44:00,67.0,63.0,29.84,WSW,257,0.0,4.0,87,0.00,,,0.00,,2013-07-27 07:44:00,
2013-07-27 03:53:00,67.0,63.0,29.84,SW,225,0.0,3.0,87,0.00,,,0.00,,2013-07-27 07:53:00,
2013-07-27 04:02:00,67.0,63.0,29.83,South,188,1.0,3.0,87,0.00,,,0.00,,2013-07-27 08:02:00,
2013-07-27 04:12:00,67.0,63.0,29.83,South,188,1.0,3.0,87,0.00,,,0.00,,2013-07-27 08:12:00,
2013-07-27 04:22:00,67.0,63.0,29.83,WSW,244,3.0,9.0,87,0.00,,,0.00,,2013-07-27 08:22:00,
2013-07-27 04:32:00,67.0,63.0,29.84,West,276,2.0,8.0,87,0.00,,,0.00,,2013-07-27 08:32:00,
2013-07-27 04:43:00,67.0,63.0,29.84,West,276,2.0,8.0,87,0.00,,,0.00,,2013-07-27 08:43:00,
2013-07-27 04:53:00,67.0,63.0,29.83,WNW,302,2.0,5.0,87,0.00,,,0.00,,2013-07-27 08:53:00,
2013-07-27 05:02:00,67.0,63.0,29.83,SW,222,4.0,8.0,88,0.00,,,0.00,,2013-07-27 09:02:00,
2013-07-27 05:12:00,67.0,63.0,29.83,SW,222,4.0,8.0,88,0.00,,,0.00,,2013-07-27 09:12:00,
2013-07-27 05:22:00,67.0,64.0,29.83,SW,230,2.0,6.0,89,0.00,,,0.00,,2013-07-27 09:22:00,
2013-07-27 05:33:00,66.0,63.0,29.82,SW,225,2.0,5.0,90,0.00,,,0.00,,2013-07-27 09:33:00,
2013-07-27 05:44:00,66.0,63.0,29.82,SW,225,2.0,5.0,90,0.00,,,0.00,,2013-07-27 09:44:00,
2013-07-27 05:52:00,66.0,63.0,29.82,WSW,255,2.0,7.0,90,0.00,,,0.00,,2013-07-27 09:52:00,
2013-07-27 06:02:00,66.0,63.0,29.82,West,273,3.0,7.0,90,0.00,,,0.00,,2013-07-27 10:02:00,
2013-07-27 06:12:00,66.0,63.0,29.82,West,273,3.0,7.0,90,0.00,,,0.00,,2013-07-27 10:12:00,
2013-07-27 06:32:00,66.0,63.0,29.82,WSW,246,1.0,5.0,90,0.00,,,0.00,,2013-07-27 10:32:00,
2013-07-27 06:43:00,66.0,63.0,29.82,WSW,242,2.0,6.0,90,0.00,,,0.00,,2013-07-27 10:43:00,
2013-07-27 06:52:00,66.0,63.0,29.82,SW,234,1.0,7.0,90,0.00,,,0.00,,2013-07-27 10:52:00,
2013-07-27 07:12:00,67.0,64.0,29.83,WSW,237,3.0,8.0,90,0.00,,,0.00,,2013-07-27 11:12:00,
2013-07-27 07:22:00,67.0,64.0,29.83,WSW,242,2.0,5.0,90,0.00,,,0.00,,2013-07-27 11:22:00,
2013-07-27 07:44:00,67.0,64.0,29.82,WSW,248,2.0,5.0,89,0.00,,,0.00,,2013-07-27 11:44:00,
2013-07-27 07:53:00,67.0,64.0,29.82,West,265,3.0,8.0,89,0.00,,,0.00,,2013-07-27 11:53:00,
2013-07-27 08:03:00,67.0,64.0,29.82,West,265,3.0,8.0,89,0.00,,,0.00,,2013-07-27 12:03:00,
2013-07-27 08:12:00,67.0,64.0,29.83,WSW,250,2.0,7.0,90,0.00,,,0.00,,2013-07-27 12:12:00,
2013-07-27 08:22:00,67.0,64.0,29.83,SW,232,1.0,5.0,90,0.00,,,0.00,,2013-07-27 12:22:00,
2013-07-27 08:33:00,67.0,64.0,29.83,SW,232,1.0,5.0,90,0.00,,,0.00,,2013-07-27 12:33:00,
2013-07-27 08:43:00,67.0,64.0,29.82,West,279,2.0,6.0,89,0.00,,,0.00,,2013-07-27 12:43:00,
2013-07-27 09:02:00,67.0,63.0,29.82,SW,219,1.0,7.0,88,0.00,,,0.00,,2013-07-27 13:02:00,
2013-07-27 09:12:00,68.0,64.0,29.82,WSW,248,3.0,7.0,87,0.00,,,0.00,,2013-07-27 13:12:00,
2013-07-27 09:32:00,68.0,64.0,29.82,SW,233,2.0,7.0,86,0.00,,,0.00,,2013-07-27 13:32:00,
2013-07-27 09:44:00,68.0,63.0,29.82,SW,223,3.0,7.0,85,0.00,,,0.00,,2013-07-27 13:44:00,
2013-07-27 09:53:00,68.0,63.0,29.83,West,260,3.0,8.0,83,0.00,,,0.00,,2013-07-27 13:53:00,
2013-07-27 10:02:00,68.0,63.0,29.83,West,260,3.0,8.0,83,0.00,,,0.00,,2013-07-27 14:02:00,
2013-07-27 10:12:00,68.0,62.0,29.83,West,271,4.0,9.0,80,0.00,,,0.00,,2013-07-27 14:12:00,
2013-07-27 10:32:00,69.0,61.0,29.82,WNW,299,3.0,9.0,76,0.00,,,0.00,,2013-07-27 14:32:00,
2013-07-27 10:44:00,69.0,61.0,29.82,WSW,238,2.0,11.0,76,0.00,,,0.00,,2013-07-27 14:44:00,
2013-07-27 10:54:00,70.0,61.0,29.82,NNW,334,2.0,6.0,74,0.00,,,0.00,,2013-07-27 14:54:00,
2013-07-27 11:02:00,70.0,61.0,29.82,NNW,334,2.0,6.0,74,0.00,,,0.00,,2013-07-27 15:02:00,
2013-07-27 11:12:00,71.0,62.0,29.82,West,267,5.0,11.0,72,0.00,,,0.00,,2013-07-27 15:12:00,
2013-07-27 11:22:00,72.0,61.0,29.82,WSW,240,4.0,9.0,69,0.00,,,0.00,,2013-07-27 15:22:00,
2013-07-27 11:33:00,72.0,59.0,29.82,NNW,338,4.0,12.0,63,0.00,,,0.00,,2013-07-27 15:33:00,
2013-07-27 11:44:00,72.0,59.0,29.82,NNW,338,4.0,12.0,63,0.00,,,0.00,,2013-07-27 15:44:00,
2013-07-27 11:53:00,72.0,59.0,29.82,SW,234,4.0,13.0,63,0.00,,,0.00,,2013-07-27 15:53:00,
2013-07-27 12:02:00,73.0,58.0,29.82,SSW,202,5.0,12.0,60,0.00,,,0.00,,2013-07-27 16:02:00,
2013-07-27 12:12:00,73.0,58.0,29.82,SSW,202,5.0,12.0,60,0.00,,,0.00,,2013-07-27 16:12:00,
2013-07-27 12:23:00,73.0,58.0,29.82,West,275,2.0,14.0,60,0.00,,,0.00,,2013-07-27 16:23:00,
2013-07-27 12:33:00,72.0,57.0,29.82,SSW,210,4.0,9.0,59,0.00,,,0.00,,2013-07-27 16:33:00,
2013-07-27 12:43:00,72.0,57.0,29.82,SSW,210,4.0,9.0,59,0.00,,,0.00,,2013-07-27 16:43:00,
2013-07-27 12:54:00,74.0,58.0,29.82,NNW,344,3.0,10.0,58,0.00,,,0.00,,2013-07-27 16:54:00,
2013-07-27 13:02:00,73.0,57.0,29.81,SW,234,4.0,9.0,58,0.00,,,0.00,,2013-07-27 17:02:00,
2013-07-27 13:12:00,73.0,57.0,29.81,SW,234,4.0,9.0,58,0.00,,,0.00,,2013-07-27 17:12:00,
2013-07-27 13:22:00,73.0,57.0,29.81,West,273,3.0,6.0,57,0.00,,,0.00,,2013-07-27 17:22:00,
2013-07-27 13:32:00,74.0,57.0,29.81,SW,223,3.0,11.0,56,0.00,,,0.00,,2013-07-27 17:32:00,
2013-07-27 13:43:00,74.0,57.0,29.81,SW,223,3.0,11.0,56,0.00,,,0.00,,2013-07-27 17:43:00,
2013-07-27 13:54:00,74.0,57.0,29.81,WNW,289,3.0,7.0,55,0.00,,,0.00,,2013-07-27 17:54:00,
2013-07-27 14:03:00,75.0,57.0,29.81,WSW,257,3.0,8.0,54,0.00,,,0.00,,2013-07-27 18:03:00,
2013-07-27 14:12:00,75.0,57.0,29.81,WSW,257,3.0,8.0,54,0.00,,,0.00,,2013-07-27 18:12:00,
2013-07-27 14:22:00,75.0,57.0,29.81,WNW,287,3.0,11.0,53,0.00,,,0.00,,2013-07-27 18:22:00,
2013-07-27 14:33:00,76.0,58.0,29.80,West,273,5.0,12.0,53,0.00,,,0.00,,2013-07-27 18:33:00,
2013-07-27 14:43:00,76.0,58.0,29.80,West,273,5.0,12.0,53,0.00,,,0.00,,2013-07-27 18:43:00,
2013-07-27 14:53:00,75.0,57.0,29.80,WNW,288,3.0,7.0,53,0.00,,,0.00,,2013-07-27 18:53:00,
2013-07-27 15:02:00,75.0,58.0,29.80,West,268,3.0,10.0,55,0.00,,,0.00,,2013-07-27 19:02:00,
2013-07-27 15:12:00,75.0,58.0,29.80,West,268,3.0,10.0,55,0.00,,,0.00,,2013-07-27 19:12:00,
2013-07-27 15:23:00,75.0,56.0,29.80,NNW,328,4.0,13.0,52,0.00,,,0.00,,2013-07-27 19:23:00,
2013-07-27 15:32:00,74.0,57.0,29.80,NW,322,3.0,9.0,56,0.00,,,0.00,,2013-07-27 19:32:00,
2013-07-27 15:43:00,74.0,57.0,29.80,NW,322,3.0,9.0,56,0.00,,,0.00,,2013-07-27 19:43:00,
2013-07-27 15:53:00,75.0,58.0,29.79,West,279,4.0,10.0,56,0.00,,,0.00,,2013-07-27 19:53:00,
2013-07-27 16:12:00,77.0,56.0,29.79,WSW,250,4.0,10.0,49,0.00,,,0.00,,2013-07-27 20:12:00,
2013-07-27 16:23:00,77.0,56.0,29.79,West,262,6.0,11.0,49,0.00,,,0.00,,2013-07-27 20:23:00,
2013-07-27 16:32:00,74.0,56.0,29.79,West,273,7.0,13.0,54,0.00,,,0.00,,2013-07-27 20:32:00,
2013-07-27 16:43:00,74.0,56.0,29.79,West,273,7.0,13.0,54,0.00,,,0.00,,2013-07-27 20:43:00,
2013-07-27 16:52:00,74.0,58.0,29.79,West,281,4.0,12.0,58,0.00,,,0.00,,2013-07-27 20:52:00,
2013-07-27 17:03:00,74.0,57.0,29.80,WNW,286,4.0,10.0,56,0.00,,,0.00,,2013-07-27 21:03:00,
2013-07-27 17:12:00,74.0,57.0,29.80,WNW,286,4.0,10.0,56,0.00,,,0.00,,2013-07-27 21:12:00,
2013-07-27 17:23:00,75.0,58.0,29.80,NW,304,3.0,11.0,55,0.00,,,0.00,,2013-07-27 21:23:00,
2013-07-27 17:33:00,74.0,57.0,29.79,SW,226,3.0,9.0,55,0.00,,,0.00,,2013-07-27 21:33:00,
2013-07-27 17:43:00,74.0,57.0,29.79,SW,226,3.0,9.0,55,0.00,,,0.00,,2013-07-27 21:43:00,
2013-07-27 17:53:00,75.0,56.0,29.79,West,271,2.0,12.0,51,0.00,,,0.00,,2013-07-27 21:53:00,
2013-07-27 18:02:00,76.0,55.0,29.80,NW,326,3.0,10.0,49,0.00,,,0.00,,2013-07-27 22:02:00,
2013-07-27 18:12:00,76.0,55.0,29.80,NW,326,3.0,10.0,49,0.00,,,0.00,,2013-07-27 22:12:00,
2013-07-27 18:22:00,74.0,55.0,29.80,SW,225,2.0,10.0,51,0.00,,,0.00,,2013-07-27 22:22:00,
2013-07-27 18:33:00,73.0,55.0,29.80,NW,310,3.0,8.0,54,0.00,,,0.00,,2013-07-27 22:33:00,
2013-07-27 18:43:00,73.0,55.0,29.80,NW,310,3.0,8.0,54,0.00,,,0.00,,2013-07-27 22:43:00,
2013-07-27 18:53:00,73.0,54.0,29.80,West,265,4.0,8.0,51,0.00,,,0.00,,2013-07-27 22:53:00,
2013-07-27 19:02:00,72.0,54.0,29.80,WNW,300,4.0,9.0,53,0.00,,,0.00,,2013-07-27 23:02:00,
2013-07-27 19:12:00,72.0,54.0,29.80,WNW,300,4.0,9.0,53,0.00,,,0.00,,2013-07-27 23:12:00,
2013-07-27 19:22:00,71.0,54.0,29.81,West,275,4.0,11.0,54,0.00,,,0.00,,2013-07-27 23:22:00,
2013-07-27 19:32:00,71.0,52.0,29.81,SW,232,3.0,11.0,52,0.00,,,0.00,,2013-07-27 23:32:00,
2013-07-27 19:44:00,71.0,52.0,29.81,SW,232,3.0,11.0,52,0.00,,,0.00,,2013-07-27 23:44:00,
2013-07-27 19:53:00,70.0,52.0,29.82,West,269,3.0,9.0,53,0.00,,,0.00,,2013-07-27 23:53:00,
2013-07-27 20:02:00,69.0,52.0,29.83,NW,319,2.0,7.0,54,0.00,,,0.00,,2013-07-28 00:02:00,
2013-07-27 20:12:00,69.0,52.0,29.83,NW,319,2.0,7.0,54,0.00,,,0.00,,2013-07-28 00:12:00,
2013-07-27 20:23:00,68.0,51.0,29.83,NW,305,2.0,8.0,55,0.00,,,0.00,,2013-07-28 00:23:00,
2013-07-27 20:32:00,68.0,52.0,29.83,WSW,251,3.0,7.0,56,0.00,,,0.00,,2013-07-28 00:32:00,
2013-07-27 20:44:00,68.0,52.0,29.83,WSW,251,3.0,7.0,56,0.00,,,0.00,,2013-07-28 00:44:00,
2013-07-27 20:53:00,67.0,52.0,29.83,WNW,294,1.0,9.0,58,0.00,,,0.00,,2013-07-28 00:53:00,
2013-07-27 21:12:00,66.0,52.0,29.84,NNW,336,2.0,8.0,60,0.00,,,0.00,,2013-07-28 01:12:00,
2013-07-27 21:23:00,65.0,52.0,29.84,NNW,342,1.0,5.0,63,0.00,,,0.00,,2013-07-28 01:23:00,
2013-07-27 21:32:00,65.0,53.0,29.84,WNW,299,1.0,7.0,64,0.00,,,0.00,,2013-07-28 01:32:00,
2013-07-27 21:43:00,65.0,53.0,29.84,WNW,299,1.0,7.0,64,0.00,,,0.00,,2013-07-28 01:43:00,
2013-07-27 21:53:00,64.0,52.0,29.85,NNW,334,0.0,6.0,64,0.00,,,0.00,,2013-07-28 01:53:00,
2013-07-27 22:03:00,63.0,51.0,29.85,North,355,0.0,3.0,66,0.00,,,0.00,,2013-07-28 02:03:00,
2013-07-27 22:12:00,63.0,51.0,29.85,North,355,0.0,3.0,66,0.00,,,0.00,,2013-07-28 02:12:00,
2013-07-27 22:22:00,63.0,52.0,29.86,NW,316,0.0,3.0,67,0.00,,,0.00,,2013-07-28 02:22:00,
2013-07-27 22:32:00,62.0,51.0,29.86,WNW,294,0.0,2.0,68,0.00,,,0.00,,2013-07-28 02:32:00,
2013-07-27 22:42:00,62.0,51.0,29.86,WNW,294,0.0,2.0,68,0.00,,,0.00,,2013-07-28 02:42:00,
2013-07-27 22:53:00,61.0,51.0,29.86,NNW,335,0.0,3.0,70,0.00,,,0.00,,2013-07-28 02:53:00,
2013-07-27 23:03:00,61.0,52.0,29.87,WNW,299,0.0,5.0,71,0.00,,,0.00,,2013-07-28 03:03:00,
2013-07-27 23:12:00,61.0,52.0,29.87,WNW,299,0.0,5.0,71,0.00,,,0.00,,2013-07-28 03:12:00,
2013-07-27 23:22:00,60.0,51.0,29.87,WNW,302,0.0,4.0,72,0.00,,,0.00,,2013-07-28 03:22:00,
2013-07-27 23:32:00,60.0,51.0,29.88,North,355,1.0,6.0,72,0.00,,,0.00,,2013-07-28 03:32:00,
2013-07-27 23:42:00,60.0,51.0,29.88,North,355,1.0,6.0,72,0.00,,,0.00,,2013-07-28 03:42:00,
2013-07-27 23:53:00,59.0,50.0,29.87,NW,313,1.0,4.0,73,0.00,,,0.00,,2013-07-28 03:53:00,